FW3071 Weather Reports


Display with metric or nautical units.
time (UTC)temp
F
wind
direction
speed
MPH
gust
MPH
rain 1hr
in
rain 24hr
in
rain mn
in
humidity
%
barometer
mb
20240303180520 75 130 7.0 17.0 0.00 0.00 0.00 82 1013.1
20240303180025 75 152 8.0 17.0 0.00 0.00 0.00 81 1013.2
20240303175519 75 140 8.0 14.0 0.00 0.00 0.00 82 1013.3
20240303175021 75 159 8.0 14.0 0.00 0.00 0.00 81 1013.5
20240303174518 75 119 7.0 13.0 0.00 0.00 0.00 81 1013.6
20240303174020 75 151 7.0 14.0 0.00 0.00 0.00 81 1013.7
20240303173520 75 135 9.0 14.0 0.00 0.00 0.00 80 1013.8
20240303173021 76 178 8.0 13.0 0.00 0.00 0.00 81 1013.8
20240303172520 76 123 8.0 13.0 0.00 0.00 0.00 81 1013.8
20240303172019 76 141 8.0 15.0 0.00 0.00 0.00 81 1013.8
20240303171521 75 195 9.0 15.0 0.00 0.00 0.00 82 1013.8
20240303171020 75 190 9.0 15.0 0.00 0.00 0.00 82 1013.8
20240303170522 75 140 8.0 14.0 0.00 0.00 0.00 83 1014.0
20240303170018 74 171 8.0 14.0 0.00 0.00 0.00 85 1014.0
20240303165517 73 153 6.0 12.0 0.00 0.00 0.00 87 1014.0
20240303165021 72 146 5.0 10.0 0.00 0.00 0.00 88 1014.0
20240303164522 72 134 6.0 10.0 0.00 0.00 0.00 89 1014.1
20240303164020 71 134 5.0 10.0 0.00 0.00 0.00 90 1014.2
20240303163520 70 157 3.0 10.0 0.00 0.00 0.00 91 1014.2
20240303163021 70 67 2.0 6.0 0.00 0.00 0.00 91 1014.2
20240303162518 70 180 2.0 8.0 0.00 0.00 0.00 91 1014.3
20240303162017 69 192 3.0 9.0 0.00 0.00 0.00 91 1014.2
20240303161539 69 138 4.0 10.0 0.00 0.00 0.00 91 1014.3
20240303161021 69 171 5.0 10.0 0.00 0.00 0.00 91 1014.2
20240303160521 70 140 4.0 10.0 0.00 0.00 0.00 92 1014.2
20240303160026 70 171 4.0 8.0 0.00 0.00 0.00 93 1014.3
20240303155517 70 141 3.0 8.0 0.00 0.00 0.00 93 1014.3
20240303155020 69 139 4.0 8.0 0.00 0.00 0.00 93 1014.2
20240303154519 69 123 4.0 8.0 0.00 0.00 0.00 93 1014.3
20240303154017 69 152 3.0 6.0 0.00 0.00 0.00 93 1014.3
20240303153520 69 141 1.0 8.0 0.00 0.00 0.00 94 1014.3
20240303153028 69 186 2.0 8.0 0.00 0.00 0.00 94 1014.2
20240303152521 69 140 2.0 7.0 0.00 0.00 0.00 94 1014.3
20240303152018 68 115 3.0 8.0 0.00 0.00 0.00 94 1014.2
20240303151523 68 171 3.0 8.0 0.00 0.00 0.00 94 1014.2
20240303151021 68 150 2.0 7.0 0.00 0.00 0.00 94 1014.1
20240303150520 68 134 3.0 8.0 0.00 0.00 0.00 94 1014.0
20240303150020 68 150 3.0 8.0 0.00 0.00 0.00 94 1013.9
20240303145520 67 169 3.0 8.0 0.00 0.00 0.00 94 1014.0
20240303145017 67 182 3.0 8.0 0.00 0.00 0.00 94 1013.9
20240303144521 67 153 2.0 7.0 0.00 0.00 0.00 94 1014.0
20240303144021 67 140 2.0 7.0 0.00 0.00 0.00 94 1014.0
20240303143520 67 176 4.0 7.0 0.00 0.00 0.00 94 1013.8
20240303143023 67 170 3.0 7.0 0.00 0.00 0.00 94 1013.8
20240303142523 66 142 2.0 7.0 0.00 0.00 0.00 94 1013.9
20240303142017 66 157 3.0 7.0 0.00 0.00 0.00 94 1014.0
20240303141521 66 138 3.0 6.0 0.00 0.00 0.00 94 1013.8
20240303141017 66 126 2.0 5.0 0.00 0.00 0.00 94 1013.6
20240303140518 66 0 1.0 3.0 0.00 0.00 0.00 94 1013.7
20240303140035 66 131 1.0 6.0 0.00 0.00 0.00 94 1013.5
20240303135518 66 100 0.0 6.0 0.00 0.00 0.00 94 1013.4
20240303135018 66 103 1.0 6.0 0.00 0.00 0.00 94 1013.5
20240303134521 65 0 1.0 3.0 0.00 0.00 0.00 94 1013.5
20240303134018 65 0 0.0 3.0 0.00 0.00 0.00 94 1013.2
20240303133518 65 101 0.0 3.0 0.00 0.00 0.00 94 1013.2
20240303133023 65 88 0.0 3.0 0.00 0.00 0.00 94 1013.1
20240303132518 65 88 0.0 3.0 0.00 0.00 0.00 94 1013.4
20240303132022 65 0 0.0 3.0 0.00 0.00 0.00 94 1013.2
20240303131521 65 120 0.0 3.0 0.00 0.00 0.00 94 1013.2
20240303131018 65 128 0.0 2.0 0.00 0.00 0.00 94 1013.3
20240303130522 65 0 0.0 2.0 0.00 0.00 0.00 94 1013.4
20240303130041 65 153 0.0 2.0 0.00 0.00 0.00 94 1013.1
20240303125521 65 169 0.0 3.0 0.00 0.00 0.00 94 1013.0
20240303125020 65 142 1.0 3.0 0.00 0.00 0.00 94 1012.9
20240303124526 65 147 1.0 3.0 0.00 0.00 0.00 93 1012.9
20240303124019 65 147 1.0 3.0 0.00 0.00 0.00 94 1012.9
20240303123524 65 148 1.0 4.0 0.00 0.00 0.00 94 1012.8
20240303123020 65 135 1.0 4.0 0.00 0.00 0.00 94 1012.8
20240303122520 65 104 0.0 4.0 0.00 0.00 0.00 94 1012.9
20240303122018 65 90 1.0 4.0 0.00 0.00 0.00 94 1012.9
20240303121522 65 0 1.0 4.0 0.00 0.00 0.00 93 1012.9
20240303121021 65 87 0.0 4.0 0.00 0.00 0.00 93 1012.8
20240303120518 65 87 1.0 4.0 0.00 0.00 0.00 93 1012.8
20240303120042 65 90 1.0 4.0 0.00 0.00 0.00 93 1012.9
20240303115518 65 107 0.0 3.0 0.00 0.00 0.00 93 1012.7
20240303115018 65 98 0.0 3.0 0.00 0.00 0.00 93 1012.8
20240303114529 65 94 1.0 3.0 0.00 0.00 0.00 93 1012.9
20240303114017 65 94 1.0 3.0 0.00 0.00 0.00 93 1012.9
20240303113518 65 0 1.0 4.0 0.00 0.00 0.00 94 1013.0
20240303113020 65 103 1.0 4.0 0.00 0.00 0.00 94 1012.9
20240303112520 65 100 0.0 3.0 0.00 0.00 0.00 93 1012.8
20240303112020 65 136 0.0 3.0 0.00 0.00 0.00 93 1012.8
20240303111523 65 136 0.0 3.0 0.00 0.00 0.00 93 1012.8
20240303111021 65 0 0.0 3.0 0.00 0.00 0.00 93 1012.6
20240303110522 65 136 1.0 3.0 0.00 0.00 0.00 93 1012.5
20240303110033 65 136 0.0 2.0 0.00 0.00 0.00 93 1012.5
20240303105519 65 0 0.0 2.0 0.00 0.00 0.00 93 1012.6
20240303105020 65 136 0.0 3.0 0.00 0.00 0.00 93 1012.5
20240303104529 65 0 0.0 3.0 0.00 0.00 0.00 93 1012.4
20240303104019 65 136 1.0 3.0 0.00 0.00 0.00 93 1012.5
20240303103520 65 136 1.0 3.0 0.00 0.00 0.00 93 1012.5
20240303103023 65 136 1.0 3.0 0.00 0.00 0.00 93 1012.4
20240303102519 65 136 1.0 5.0 0.00 0.00 0.00 93 1012.4
20240303102019 65 0 2.0 5.0 0.00 0.00 0.00 93 1012.5
20240303101532 65 159 2.0 5.0 0.00 0.00 0.00 93 1012.7
20240303101019 65 155 1.0 5.0 0.00 0.00 0.00 93 1012.7
20240303100519 65 165 2.0 6.0 0.00 0.00 0.00 93 1012.7
20240303100020 65 138 2.0 7.0 0.00 0.00 0.00 93 1012.7
20240303095520 65 115 2.0 7.0 0.00 0.00 0.00 93 1012.6
20240303095017 65 141 3.0 6.0 0.00 0.00 0.00 93 1012.8
20240303094523 65 150 2.0 7.0 0.00 0.00 0.00 93 1012.9
20240303094020 65 161 2.0 7.0 0.00 0.00 0.00 93 1013.0
20240303093520 65 144 3.0 7.0 0.00 0.00 0.00 93 1012.9
20240303093020 65 163 2.0 7.0 0.00 0.00 0.00 93 1013.0
20240303092520 65 141 3.0 8.0 0.00 0.00 0.00 93 1013.1
20240303092020 65 124 4.0 8.0 0.00 0.00 0.00 93 1013.2
20240303091538 65 130 3.0 8.0 0.00 0.00 0.00 93 1013.4
20240303091020 66 134 3.0 8.0 0.00 0.00 0.00 93 1013.2
20240303090520 66 147 3.0 8.0 0.00 0.00 0.00 93 1013.4
20240303090035 66 149 3.0 8.0 0.00 0.00 0.00 93 1013.4
20240303085519 66 165 4.0 8.0 0.00 0.00 0.00 92 1013.2
20240303085020 66 157 2.0 9.0 0.00 0.00 0.00 92 1013.4
20240303084522 66 133 4.0 12.0 0.00 0.00 0.00 92 1013.3
20240303084016 66 227 5.0 12.0 0.00 0.00 0.00 92 1013.4
20240303083520 66 171 5.0 10.0 0.00 0.00 0.00 92 1013.4
20240303083023 66 140 4.0 10.0 0.00 0.00 0.00 92 1013.5
20240303082520 66 130 4.0 9.0 0.00 0.00 0.00 93 1013.4
20240303082018 66 179 5.0 9.0 0.00 0.00 0.00 93 1013.5
20240303081520 66 138 6.0 9.0 0.00 0.00 0.00 93 1013.5
20240303081020 66 149 3.0 9.0 0.00 0.00 0.00 92 1013.8
20240303080518 66 153 4.0 10.0 0.00 0.00 0.00 93 1013.7
20240303080023 66 153 5.0 10.0 0.00 0.00 0.00 93 1013.7
20240303075519 66 145 5.0 9.0 0.00 0.00 0.00 92 1013.8
20240303075017 65 144 4.0 8.0 0.00 0.00 0.00 92 1013.8
20240303074530 65 140 4.0 8.0 0.00 0.00 0.00 92 1013.8
20240303074017 65 141 4.0 7.0 0.00 0.00 0.00 92 1014.0
20240303073519 65 165 2.0 5.0 0.00 0.00 0.00 92 1013.9
20240303073025 65 139 2.0 5.0 0.00 0.00 0.00 92 1014.0
20240303072519 65 153 2.0 4.0 0.00 0.00 0.00 92 1014.1
20240303072019 65 153 2.0 4.0 0.00 0.00 0.00 92 1014.3
20240303071519 65 129 2.0 4.0 0.00 0.00 0.00 92 1014.3
20240303071019 65 135 2.0 4.0 0.00 0.00 0.00 92 1014.4
20240303070521 65 143 1.0 4.0 0.00 0.00 0.00 92 1014.4
20240303070022 65 155 1.0 3.0 0.00 0.00 0.00 92 1014.5
20240303065520 65 155 0.0 3.0 0.00 0.00 0.00 92 1014.6
20240303065019 65 155 1.0 3.0 0.00 0.00 0.00 92 1014.7
20240303064517 65 155 1.0 3.0 0.00 0.00 0.00 91 1014.7
20240303064019 65 145 1.0 4.0 0.00 0.00 0.00 91 1014.6
20240303063518 65 145 2.0 5.0 0.00 0.00 0.00 91 1014.6
20240303063024 65 145 2.0 5.0 0.00 0.00 0.00 91 1014.6
20240303062520 65 154 2.0 4.0 0.00 0.00 0.00 92 1014.8
20240303062019 65 191 1.0 4.0 0.00 0.00 0.00 92 1014.9
20240303061520 65 98 0.0 3.0 0.00 0.00 0.00 92 1014.9
20240303061023 65 98 0.0 3.0 0.00 0.00 0.00 92 1015.1
20240303060518 65 98 0.0 3.0 0.00 0.00 0.00 92 1015.1
20240303060029 65 98 1.0 3.0 0.00 0.00 0.00 91 1015.1
20240303055519 65 0 0.0 2.0 0.00 0.00 0.00 91 1015.0
20240303055019 65 98 0.0 2.0 0.00 0.00 0.00 91 1015.1
20240303054518 65 0 0.0 2.0 0.00 0.00 0.00 91 1015.2
20240303054019 65 98 0.0 3.0 0.00 0.00 0.00 91 1015.2
20240303053518 65 98 0.0 3.0 0.00 0.00 0.00 91 1015.1
20240303053023 65 98 1.0 2.0 0.00 0.00 0.00 92 1015.3
20240303052521 65 98 0.0 2.0 0.00 0.00 0.00 92 1015.3
20240303052019 65 0 0.0 2.0 0.00 0.00 0.00 91 1015.3
20240303051519 64 0 0.0 3.0 0.00 0.00 0.00 91 1015.2
20240303051020 64 98 0.0 3.0 0.00 0.00 0.00 91 1015.3
20240303050519 64 98 0.0 3.0 0.00 0.00 0.00 91 1015.4
20240303050021 64 98 1.0 3.0 0.00 0.00 0.00 91 1015.3
20240303045520 65 98 0.0 3.0 0.00 0.00 0.00 90 1015.4
20240303045018 65 103 1.0 3.0 0.00 0.00 0.00 90 1015.4
20240303044521 65 101 1.0 3.0 0.00 0.00 0.00 90 1015.3
20240303044019 65 144 0.0 3.0 0.00 0.00 0.00 90 1015.3
20240303043518 65 0 0.0 4.0 0.00 0.00 0.00 90 1015.3
20240303043021 65 0 1.0 4.0 0.00 0.00 0.00 90 1015.4
20240303042518 65 0 0.0 4.0 0.00 0.00 0.00 90 1015.4
20240303042019 65 84 1.0 4.0 0.00 0.00 0.00 90 1015.3
20240303041519 65 97 1.0 6.0 0.00 0.00 0.00 90 1015.5
20240303041019 65 0 2.0 6.0 0.00 0.00 0.00 91 1015.4
20240303040523 65 5 1.0 6.0 0.00 0.00 0.00 91 1015.4
20240303040033 65 116 1.0 7.0 0.00 0.00 0.00 91 1015.4
20240303035519 65 116 2.0 7.0 0.00 0.00 0.00 91 1015.5
20240303035020 65 100 2.0 7.0 0.00 0.00 0.00 91 1015.4
20240303034520 65 154 2.0 6.0 0.00 0.00 0.00 90 1015.4
20240303034022 65 80 1.0 6.0 0.00 0.00 0.00 90 1015.4
20240303033520 65 90 2.0 7.0 0.00 0.00 0.00 90 1015.5
20240303033022 65 126 2.0 7.0 0.00 0.00 0.00 90 1015.6
20240303032518 65 146 1.0 7.0 0.00 0.00 0.00 90 1015.5
20240303032019 65 138 2.0 8.0 0.00 0.00 0.00 90 1015.5
20240303031523 65 0 3.0 8.0 0.00 0.00 0.00 90 1015.3
20240303031018 65 94 3.0 8.0 0.00 0.00 0.00 90 1015.3
20240303030518 65 104 2.0 8.0 0.00 0.00 0.00 90 1015.4
20240303030024 65 123 3.0 8.0 0.00 0.00 0.00 90 1015.5
20240303025519 65 113 3.0 8.0 0.00 0.00 0.00 90 1015.5
20240303025018 65 74 3.0 9.0 0.00 0.00 0.00 90 1015.5
20240303024526 65 88 4.0 9.0 0.00 0.00 0.00 89 1015.6
20240303024019 65 67 5.0 9.0 0.00 0.00 0.00 89 1015.6
20240303023519 65 85 4.0 11.0 0.00 0.00 0.00 89 1015.5
20240303023021 65 80 4.0 11.0 0.00 0.00 0.00 89 1015.6
20240303022520 65 90 5.0 11.0 0.00 0.00 0.00 89 1015.7
20240303022019 65 76 5.0 11.0 0.00 0.00 0.00 89 1015.4
20240303021526 65 111 4.0 10.0 0.00 0.00 0.00 89 1015.4
20240303021016 65 107 4.0 10.0 0.00 0.00 0.00 89 1015.5
20240303020518 65 35 4.0 10.0 0.00 0.00 0.00 89 1015.6
20240303020025 65 103 3.0 10.0 0.00 0.00 0.00 89 1015.5
20240303015525 65 87 3.0 9.0 0.00 0.00 0.00 89 1015.4
20240303015016 65 173 4.0 9.0 0.00 0.00 0.00 88 1015.4
20240303014536 65 78 3.0 9.0 0.00 0.00 0.00 88 1015.3
20240303014019 65 69 3.0 10.0 0.00 0.00 0.00 88 1015.3
20240303013518 65 48 4.0 10.0 0.00 0.00 0.00 88 1015.3
20240303013032 65 113 3.0 10.0 0.00 0.00 0.00 88 1015.3
20240303012519 65 97 2.0 8.0 0.00 0.00 0.00 87 1015.1
20240303012019 65 138 2.0 9.0 0.00 0.00 0.00 87 1015.1
20240303011521 65 46 3.0 9.0 0.00 0.00 0.00 86 1014.9
20240303011017 65 85 3.0 9.0 0.00 0.00 0.00 86 1015.0
20240303010520 65 177 3.0 10.0 0.00 0.00 0.00 86 1015.2
20240303010030 65 86 5.0 10.0 0.00 0.00 0.00 86 1015.2
20240303005518 65 78 3.0 10.0 0.00 0.00 0.00 86 1015.2
20240303005020 65 94 3.0 10.0 0.00 0.00 0.00 86 1015.2
20240303004522 66 91 4.0 8.0 0.00 0.00 0.00 86 1015.2
20240303004020 66 90 3.0 9.0 0.00 0.00 0.00 85 1015.3
20240303003519 66 73 5.0 10.0 0.00 0.00 0.00 85 1015.3
20240303003027 66 96 4.0 11.0 0.00 0.00 0.00 85 1015.2
20240303002518 66 70 5.0 11.0 0.00 0.00 0.00 84 1015.2
20240303002019 66 110 3.0 11.0 0.00 0.00 0.00 83 1015.2
20240303001522 67 111 4.0 11.0 0.00 0.00 0.00 83 1015.1
20240303001021 67 116 3.0 11.0 0.00 0.00 0.00 82 1015.2
20240303000517 67 67 3.0 11.0 0.00 0.00 0.00 82 1015.2
20240303000020 67 51 5.0 11.0 0.00 0.00 0.00 81 1015.2
20240302235551 68 55 4.0 11.0 0.00 0.00 0.00 81 1015.2
20240302235018 68 91 5.0 11.0 0.00 0.00 0.00 80 1015.2
20240302234543 68 63 3.0 9.0 0.00 0.00 0.00 80 1015.1
20240302234018 68 90 4.0 9.0 0.00 0.00 0.00 80 1015.1
20240302233517 68 97 4.0 9.0 0.00 0.00 0.00 80 1015.2
20240302233021 68 111 3.0 9.0 0.00 0.00 0.00 81 1015.2
20240302232519 67 64 4.0 11.0 0.00 0.00 0.00 81 1015.1
20240302232020 67 106 5.0 11.0 0.00 0.00 0.00 80 1015.3
20240302231522 68 111 4.0 11.0 0.00 0.00 0.00 79 1015.3
20240302231021 68 77 5.0 11.0 0.00 0.00 0.00 79 1015.3
20240302230520 69 118 4.0 10.0 0.00 0.00 0.00 78 1015.2
20240302230024 69 71 3.0 10.0 0.00 0.00 0.00 77 1015.1
20240302225519 70 71 4.0 10.0 0.00 0.00 0.00 76 1015.1
20240302225019 70 121 3.0 9.0 0.00 0.00 0.00 75 1015.2
20240302224521 71 55 3.0 8.0 0.00 0.00 0.00 74 1015.3
20240302224020 71 51 2.0 8.0 0.00 0.00 0.00 75 1015.3
20240302223520 71 191 2.0 10.0 0.00 0.00 0.00 74 1015.3
20240302223020 72 101 2.0 13.0 0.00 0.00 0.00 72 1015.4
20240302222522 73 88 4.0 13.0 0.00 0.00 0.00 71 1015.4
20240302222019 74 81 3.0 11.0 0.00 0.00 0.00 70 1015.2
20240302221538 74 111 5.0 11.0 0.00 0.00 0.00 69 1015.3
20240302221019 75 5 3.0 8.0 0.00 0.00 0.00 68 1015.2
20240302220519 75 55 3.0 8.0 0.00 0.00 0.00 67 1015.3
20240302220033 75 111 3.0 9.0 0.00 0.00 0.00 68 1015.3
20240302215519 75 108 2.0 9.0 0.00 0.00 0.00 69 1015.3
20240302215020 75 86 4.0 9.0 0.00 0.00 0.00 67 1015.4
20240302214529 76 185 3.0 8.0 0.00 0.00 0.00 68 1015.4
20240302214021 76 85 3.0 8.0 0.00 0.00 0.00 67 1015.3
20240302213519 76 51 3.0 8.0 0.00 0.00 0.00 68 1015.3
20240302213024 75 98 3.0 9.0 0.00 0.00 0.00 68 1015.5
20240302212522 75 77 3.0 11.0 0.00 0.00 0.00 68 1015.5
20240302212019 75 110 4.0 11.0 0.00 0.00 0.00 68 1015.4
20240302211521 75 84 6.0 11.0 0.00 0.00 0.00 67 1015.6
20240302211019 76 101 5.0 10.0 0.00 0.00 0.00 67 1015.6
20240302210520 75 111 2.0 6.0 0.00 0.00 0.00 69 1015.6
20240302210022 74 164 1.0 8.0 0.00 0.00 0.00 70 1015.7
20240302205520 74 81 4.0 9.0 0.00 0.00 0.00 69 1015.8
20240302205019 74 126 3.0 10.0 0.00 0.00 0.00 71 1015.8
20240302204604 74 104 2.0 10.0 0.00 0.00 0.00 69 1016.0
20240302204020 74 61 3.0 9.0 0.00 0.00 0.00 69 1016.0
20240302203520 74 202 2.0 10.0 0.00 0.00 0.00 70 1016.0
20240302203018 74 97 3.0 10.0 0.00 0.00 0.00 68 1016.0
20240302202520 75 66 5.0 10.0 0.00 0.00 0.00 67 1016.2
20240302202019 75 124 5.0 10.0 0.00 0.00 0.00 67 1016.2
20240302201522 75 94 3.0 11.0 0.00 0.00 0.00 68 1016.3
20240302201019 75 134 4.0 12.0 0.00 0.00 0.00 67 1016.3
20240302200520 75 101 5.0 12.0 0.00 0.00 0.00 68 1016.2
20240302200023 75 111 4.0 10.0 0.00 0.00 0.00 68 1016.2
20240302195520 75 86 3.0 9.0 0.00 0.00 0.00 69 1016.4
20240302195023 75 58 4.0 9.0 0.00 0.00 0.00 69 1016.6
20240302194524 75 70 3.0 9.0 0.00 0.00 0.00 69 1016.7
20240302194020 75 241 3.0 9.0 0.00 0.00 0.00 68 1016.7
20240302193517 74 49 3.0 9.0 0.00 0.00 0.00 70 1016.8
20240302193025 73 123 5.0 9.0 0.00 0.00 0.00 69 1016.9
20240302192520 73 131 2.0 8.0 0.00 0.00 0.00 70 1017.0
20240302192020 73 114 3.0 9.0 0.00 0.00 0.00 69 1017.1
20240302191518 73 87 4.0 9.0 0.00 0.00 0.00 69 1017.2
20240302191022 72 34 3.0 9.0 0.00 0.00 0.00 71 1017.2
20240302190520 71 66 3.0 9.0 0.00 0.00 0.00 73 1017.3
20240302190021 70 46 2.0 8.0 0.00 0.00 0.00 72 1017.4
20240302185519 70 61 2.0 9.0 0.00 0.00 0.00 71 1017.6
20240302185020 70 72 3.0 9.0 0.00 0.00 0.00 71 1017.7
20240302184523 70 103 3.0 9.0 0.00 0.00 0.00 70 1017.8
20240302184020 70 87 2.0 10.0 0.00 0.00 0.00 70 1017.9
20240302183520 70 64 4.0 10.0 0.00 0.00 0.00 69 1018.0
20240302183020 71 96 3.0 8.0 0.00 0.00 0.00 70 1018.1
20240302182520 71 96 1.0 8.0 0.00 0.00 0.00 70 1018.0
20240302182020 71 110 3.0 9.0 0.00 0.00 0.00 71 1018.0
20240302181522 70 68 2.0 9.0 0.00 0.00 0.00 71 1018.1
20240302181019 70 94 2.0 9.0 0.00 0.00 0.00 71 1018.1